STARLINK-2574, 48395

Orbit data source: Space-Track

STARLINK-2574, 48395 is a payload satellite owned by SpaceX/Seattle (US) in LEO that was launched on Tue, 04 May 2021 UTC via an FALCON 9 launch vehicle from the Air Force Eastern Test Range (AFETR). Payload-class satellites include a variety of spacecraft equipped with specific instruments for various scientific and technological missions. These include communications satellites like Starlink; space stations such as the ISS; scientific satellites like the Hubble; Earth observation satellites from companies like Planet Labs, Umbra, and HawkEye 360; GPS; miniature CubeSats for education and research; and military/defense satellites.

Loading next visibility...
Identifier
48395, 2021-038AU
Orbit
LEO
Country
Flag of USUS
Related business
Manufacturer
SpaceX/Seattle
Mission
Operational Commercial Communications
Bus & Motor
STARLINK, Unknown motor
Mass
260 kg wet, ~248 kg dry
Launch date (UTC)
2021-05-04 (5 years ago)
Launch vehicle
FALCON 9
Launch site
Air Force Eastern Test Range (AFETR)
Object type
Payload
Rocket body
Debris
Shape & HBR
Box + 1 Pan, 10.1 m
Radar Cross Section
13.562 m², Large (>1 m²)

Expand to show TLE details & history
Last TLE update: 2 days ago

TLE from 2 days ago
0 STARLINK-2574
1 48395U 21038AU  26171.39608223 -.00000126  00000-0  77216-5 0  9991
2 48395  53.1613 217.1006 0001323  83.5830 276.5322 15.31707694284366
Epoch: 2026-06-20T09:30Z
TLE epoch observation values (Epoch: 2026-06-20T09:30:21.504Z)
Latitude
-0.00004°
Longitude
165.89966°
Altitude
471.515 km
Speed
7.632 km/s
True Right ascension
14h 28m 24s
True Declination
0° 00' 00"
Sunlit
Object was in full shadow at epoch
Visualization orbit readout
Latitude
Unknown
Longitude
Unknown
Altitude
Unknown
Speed
Unknown
Apparent Right ascension
Unknown
Apparent Declination
Unknown
Sunlit
N/A
Visualization observer readout
Local Sidereal Time
21:33:15
Azimuth
Unknown
Elevation
Unknown
Doppler factor
Unknown
Orbital elements
Apogee altitude
471.88 km
Perigee altitude
470.067 km
Semi-major axis
6,849.11 km
Eccentricity
0.00013
Inclination
53.1613°
RAAN
217.1006°
Arg. of periapsis
83.583°
True anomaly
276.51714°
Mean anomaly
276.5322°
Eccentric anomaly
276.52467°
Mean motion
3.82906 °/min
Orbital period
94.02 mins
BSTAR
0.0000077216
Loading maneuver chart data...
Computing Atmospheric mass density...

Documentation

Showing up to 5 results
|